Location: Unspecified
(0.0000°N, 0.0000°E)
Time: 05:57:34
(UTC+00:00)

DX 1 - Pass Details

Date: 04 July 2020
Orbit: 619 x 630 km, 98.5° (Epoch: 13 August)

Event Time Altitude Azimuth Distance (km) Brightness Sun altitude
Rises 04:43:30 0° 144° (SE) 2,909 ? -18.6°
Reaches altitude 10° 04:46:06 10° 129° (SE) 1,997 ? -18.0°
Maximum altitude 04:49:27 22° 78° (ENE) 1,365 ? -17.2°
Drops below altitude 10° 04:52:47 10° 27° (NNE) 1,985 ? -16.5°
Sets 04:55:21 0° 12° (NNE) 2,885 ? -15.9°
